| time (UTC) | temp F | wind direction | speed MPH | gust MPH | rain 1hr in | rain 24hr in | rain mn in | humidity % | barometer mb |
| 20260507195530 | 58 | 318 | 5.0 | 14.0 | 0.00 | 0.19 | 0.00 | 39 | 1008.1 |
| 20260507195030 | 58 | 340 | 8.0 | 14.0 | 0.00 | 0.19 | 0.00 | 39 | 1008.1 |
| 20260507194539 | 59 | 335 | 6.0 | 22.0 | 0.00 | 0.19 | 0.00 | 40 | 1008.1 |
| 20260507194029 | 59 | 173 | 6.0 | 22.0 | 0.00 | 0.19 | 0.00 | 43 | 1008.0 |
| 20260507193532 | 59 | 154 | 7.0 | 22.0 | 0.00 | 0.19 | 0.00 | 39 | 1008.0 |
| 20260507193038 | 59 | 8 | 5.0 | 13.0 | 0.00 | 0.19 | 0.00 | 41 | 1008.0 |
| 20260507192529 | 59 | 295 | 5.0 | 15.0 | 0.00 | 0.19 | 0.00 | 42 | 1008.2 |
| 20260507192030 | 59 | 309 | 6.0 | 15.0 | 0.00 | 0.19 | 0.00 | 39 | 1008.2 |
| 20260507191545 | 59 | 244 | 6.0 | 13.0 | 0.00 | 0.19 | 0.00 | 41 | 1008.1 |
| 20260507191029 | 59 | 15 | 5.0 | 13.0 | 0.00 | 0.19 | 0.00 | 42 | 1008.2 |
| 20260507190530 | 58 | 342 | 7.0 | 13.0 | 0.00 | 0.19 | 0.00 | 43 | 1008.4 |
| 20260507190045 | 57 | 293 | 4.0 | 12.0 | 0.00 | 0.19 | 0.00 | 45 | 1008.4 |
| 20260507185530 | 57 | 315 | 2.0 | 7.0 | 0.00 | 0.23 | 0.00 | 45 | 1008.4 |
| 20260507185030 | 56 | 293 | 3.0 | 12.0 | 0.00 | 0.23 | 0.00 | 45 | 1008.5 |
| 20260507184541 | 56 | 295 | 3.0 | 12.0 | 0.00 | 0.23 | 0.00 | 43 | 1008.5 |
| 20260507184032 | 57 | 305 | 6.0 | 12.0 | 0.00 | 0.23 | 0.00 | 41 | 1008.5 |
| 20260507183534 | 58 | 349 | 5.0 | 11.0 | 0.00 | 0.23 | 0.00 | 41 | 1008.5 |
| 20260507183045 | 59 | 285 | 3.0 | 15.0 | 0.00 | 0.23 | 0.00 | 43 | 1008.7 |
| 20260507182529 | 59 | 263 | 4.0 | 15.0 | 0.00 | 0.23 | 0.00 | 41 | 1008.5 |
| 20260507182030 | 59 | 6 | 5.0 | 12.0 | 0.00 | 0.23 | 0.00 | 42 | 1008.6 |
| 20260507181542 | 58 | 324 | 5.0 | 12.0 | 0.00 | 0.23 | 0.00 | 43 | 1008.6 |
| 20260507181030 | 59 | 309 | 3.0 | 8.0 | 0.00 | 0.23 | 0.00 | 44 | 1008.6 |
| 20260507180530 | 59 | 348 | 3.0 | 11.0 | 0.00 | 0.23 | 0.00 | 40 | 1008.7 |
| 20260507180053 | 59 | 341 | 4.0 | 11.0 | 0.00 | 0.23 | 0.00 | 42 | 1008.7 |
| 20260507175530 | 58 | 327 | 5.0 | 11.0 | 0.00 | 0.29 | 0.00 | 41 | 1008.7 |
| 20260507175030 | 58 | 343 | 5.0 | 11.0 | 0.00 | 0.29 | 0.00 | 42 | 1008.8 |
| 20260507174546 | 58 | 8 | 6.0 | 11.0 | 0.00 | 0.29 | 0.00 | 40 | 1008.8 |
| 20260507174029 | 59 | 323 | 5.0 | 15.0 | 0.00 | 0.29 | 0.00 | 46 | 1008.8 |
| 20260507173529 | 59 | 309 | 5.0 | 15.0 | 0.00 | 0.29 | 0.00 | 42 | 1008.7 |
| 20260507173051 | 58 | 250 | 3.0 | 13.0 | 0.00 | 0.29 | 0.00 | 40 | 1008.7 |
| 20260507172529 | 59 | 328 | 6.0 | 13.0 | 0.00 | 0.29 | 0.00 | 43 | 1008.6 |
| 20260507172030 | 59 | 72 | 4.0 | 11.0 | 0.00 | 0.29 | 0.00 | 40 | 1008.9 |
| 20260507171544 | 59 | 290 | 4.0 | 11.0 | 0.00 | 0.29 | 0.00 | 42 | 1008.7 |
| 20260507171029 | 59 | 12 | 4.0 | 12.0 | 0.00 | 0.29 | 0.00 | 42 | 1008.8 |
| 20260507170530 | 59 | 354 | 4.0 | 12.0 | 0.00 | 0.29 | 0.00 | 39 | 1008.9 |
| 20260507170043 | 58 | 352 | 4.0 | 12.0 | 0.00 | 0.29 | 0.00 | 40 | 1008.8 |
| 20260507165530 | 58 | 328 | 4.0 | 17.0 | 0.00 | 0.29 | 0.00 | 41 | 1009.0 |
| 20260507165035 | 58 | 8 | 7.0 | 17.0 | 0.00 | 0.29 | 0.00 | 41 | 1009.0 |
| 20260507164554 | 58 | 351 | 6.0 | 14.0 | 0.00 | 0.29 | 0.00 | 42 | 1009.1 |
| 20260507164033 | 58 | 32 | 3.0 | 13.0 | 0.00 | 0.29 | 0.00 | 43 | 1009.1 |
| 20260507163529 | 58 | 34 | 4.0 | 10.0 | 0.00 | 0.29 | 0.00 | 44 | 1009.2 |
| 20260507163048 | 58 | 323 | 5.0 | 13.0 | 0.00 | 0.29 | 0.00 | 44 | 1009.4 |
| 20260507162530 | 58 | 335 | 4.0 | 13.0 | 0.00 | 0.29 | 0.00 | 43 | 1009.6 |
| 20260507162030 | 57 | 290 | 6.0 | 13.0 | 0.00 | 0.29 | 0.00 | 41 | 1009.6 |
| 20260507161545 | 57 | 217 | 4.0 | 18.0 | 0.00 | 0.29 | 0.00 | 44 | 1009.7 |
| 20260507161029 | 57 | 283 | 6.0 | 18.0 | 0.00 | 0.29 | 0.00 | 41 | 1009.7 |
| 20260507160533 | 57 | 359 | 7.0 | 18.0 | 0.00 | 0.29 | 0.00 | 42 | 1010.0 |
| 20260507160059 | 57 | 325 | 3.0 | 7.0 | 0.00 | 0.29 | 0.00 | 53 | 1009.9 |
| 20260507155529 | 57 | 69 | 3.0 | 10.0 | 0.00 | 0.29 | 0.00 | 45 | 1010.0 |
| 20260507155029 | 57 | 345 | 4.0 | 10.0 | 0.00 | 0.29 | 0.00 | 47 | 1009.9 |
| 20260507154544 | 57 | 20 | 4.0 | 11.0 | 0.00 | 0.29 | 0.00 | 43 | 1010.0 |
| 20260507154030 | 57 | 241 | 4.0 | 12.0 | 0.00 | 0.29 | 0.00 | 43 | 1009.9 |
| 20260507153529 | 57 | 324 | 3.0 | 12.0 | 0.00 | 0.29 | 0.00 | 49 | 1010.1 |
| 20260507153049 | 56 | 10 | 6.0 | 12.0 | 0.00 | 0.29 | 0.00 | 47 | 1010.1 |
| 20260507152529 | 56 | 346 | 4.0 | 14.0 | 0.00 | 0.29 | 0.00 | 44 | 1009.9 |
| 20260507152030 | 56 | 311 | 5.0 | 14.0 | 0.00 | 0.29 | 0.00 | 45 | 1010.1 |
| 20260507151539 | 55 | 332 | 5.0 | 14.0 | 0.00 | 0.29 | 0.00 | 44 | 1010.1 |
| 20260507151030 | 55 | 293 | 5.0 | 14.0 | 0.00 | 0.29 | 0.00 | 47 | 1010.2 |
| 20260507150533 | 55 | 8 | 6.0 | 14.0 | 0.00 | 0.29 | 0.00 | 44 | 1010.2 |
| 20260507150047 | 55 | 350 | 5.0 | 16.0 | 0.00 | 0.29 | 0.00 | 45 | 1010.3 |
| 20260507145532 | 55 | 301 | 7.0 | 16.0 | 0.00 | 0.29 | 0.00 | 43 | 1010.3 |
| 20260507145029 | 55 | 359 | 6.0 | 13.0 | 0.00 | 0.29 | 0.00 | 46 | 1010.4 |
| 20260507144550 | 55 | 326 | 4.0 | 14.0 | 0.00 | 0.29 | 0.00 | 48 | 1010.5 |
| 20260507144030 | 54 | 309 | 8.0 | 14.0 | 0.00 | 0.29 | 0.00 | 42 | 1010.5 |
| 20260507143532 | 55 | 331 | 5.0 | 14.0 | 0.00 | 0.29 | 0.00 | 48 | 1010.6 |
| 20260507143042 | 54 | 329 | 5.0 | 14.0 | 0.00 | 0.29 | 0.00 | 43 | 1010.6 |
| 20260507142530 | 54 | 284 | 7.0 | 17.0 | 0.00 | 0.29 | 0.00 | 45 | 1010.6 |
| 20260507142029 | 54 | 354 | 5.0 | 17.0 | 0.00 | 0.29 | 0.00 | 48 | 1010.5 |
| 20260507141542 | 54 | 304 | 8.0 | 16.0 | 0.00 | 0.29 | 0.00 | 43 | 1010.4 |
| 20260507141033 | 54 | 23 | 4.0 | 10.0 | 0.00 | 0.29 | 0.00 | 44 | 1010.4 |
| 20260507140530 | 54 | 314 | 3.0 | 15.0 | 0.00 | 0.29 | 0.00 | 46 | 1010.4 |
| 20260507140104 | 54 | 271 | 4.0 | 15.0 | 0.00 | 0.29 | 0.00 | 47 | 1010.4 |
| 20260507135530 | 54 | 356 | 2.0 | 9.0 | 0.00 | 0.29 | 0.00 | 54 | 1010.2 |
| 20260507135030 | 54 | 159 | 3.0 | 10.0 | 0.00 | 0.29 | 0.00 | 46 | 1010.2 |
| 20260507134541 | 53 | 249 | 6.0 | 12.0 | 0.00 | 0.29 | 0.00 | 46 | 1010.2 |
| 20260507134030 | 54 | 342 | 3.0 | 12.0 | 0.00 | 0.29 | 0.00 | 48 | 1010.2 |
| 20260507133530 | 53 | 296 | 3.0 | 10.0 | 0.00 | 0.29 | 0.00 | 51 | 1010.2 |
| 20260507133048 | 53 | 347 | 5.0 | 10.0 | 0.00 | 0.29 | 0.00 | 50 | 1010.1 |
| 20260507132529 | 53 | 358 | 2.0 | 14.0 | 0.00 | 0.29 | 0.00 | 49 | 1010.2 |
| 20260507132029 | 53 | 274 | 6.0 | 14.0 | 0.00 | 0.29 | 0.00 | 49 | 1010.2 |
| 20260507131552 | 53 | 336 | 3.0 | 10.0 | 0.00 | 0.29 | 0.00 | 49 | 1010.2 |
| 20260507131031 | 53 | 313 | 5.0 | 10.0 | 0.00 | 0.29 | 0.00 | 51 | 1010.1 |
| 20260507130534 | 53 | 297 | 2.0 | 15.0 | 0.00 | 0.29 | 0.00 | 55 | 1009.9 |
| 20260507130051 | 52 | 316 | 4.0 | 15.0 | 0.00 | 0.29 | 0.00 | 56 | 1010.2 |
| 20260507125534 | 52 | 350 | 3.0 | 9.0 | 0.00 | 0.29 | 0.00 | 55 | 1010.1 |
| 20260507125030 | 52 | 340 | 3.0 | 10.0 | 0.00 | 0.29 | 0.00 | 56 | 1010.0 |
| 20260507124552 | 51 | 297 | 3.0 | 10.0 | 0.00 | 0.29 | 0.00 | 56 | 1010.0 |
| 20260507124029 | 51 | 236 | 6.0 | 12.0 | 0.00 | 0.29 | 0.00 | 55 | 1010.1 |
| 20260507123531 | 51 | 295 | 5.0 | 14.0 | 0.00 | 0.29 | 0.00 | 59 | 1010.1 |
| 20260507123053 | 51 | 89 | 4.0 | 14.0 | 0.00 | 0.29 | 0.00 | 59 | 1010.2 |
| 20260507122533 | 51 | 340 | 4.0 | 13.0 | 0.00 | 0.29 | 0.00 | 58 | 1010.2 |
| 20260507122030 | 51 | 252 | 4.0 | 13.0 | 0.00 | 0.29 | 0.00 | 59 | 1010.2 |
| 20260507121542 | 50 | 284 | 5.0 | 13.0 | 0.00 | 0.29 | 0.00 | 59 | 1010.3 |
| 20260507121029 | 50 | 284 | 4.0 | 11.0 | 0.00 | 0.29 | 0.00 | 64 | 1010.2 |
| 20260507120530 | 50 | 281 | 3.0 | 11.0 | 0.00 | 0.29 | 0.00 | 64 | 1010.1 |
| 20260507120048 | 50 | 293 | 3.0 | 11.0 | 0.00 | 0.29 | 0.00 | 68 | 1010.1 |
| 20260507115530 | 50 | 334 | 3.0 | 12.0 | 0.00 | 0.29 | 0.00 | 66 | 1010.2 |
| 20260507115030 | 49 | 347 | 6.0 | 12.0 | 0.00 | 0.29 | 0.00 | 67 | 1010.0 |
| 20260507114547 | 49 | 36 | 4.0 | 12.0 | 0.00 | 0.29 | 0.00 | 71 | 1009.9 |
| 20260507114031 | 49 | 347 | 4.0 | 12.0 | 0.00 | 0.29 | 0.00 | 73 | 1009.9 |
| 20260507113530 | 49 | 307 | 5.0 | 9.0 | 0.00 | 0.29 | 0.00 | 75 | 1009.8 |
| 20260507113044 | 49 | 274 | 4.0 | 9.0 | 0.00 | 0.29 | 0.00 | 77 | 1009.9 |
| 20260507112531 | 48 | 299 | 3.0 | 8.0 | 0.00 | 0.29 | 0.00 | 78 | 1009.7 |
| 20260507112030 | 48 | 344 | 3.0 | 8.0 | 0.00 | 0.29 | 0.00 | 80 | 1009.7 |
| 20260507111545 | 48 | 333 | 1.0 | 10.0 | 0.00 | 0.29 | 0.00 | 80 | 1009.6 |
| 20260507111029 | 47 | 266 | 2.0 | 10.0 | 0.00 | 0.29 | 0.00 | 81 | 1009.4 |
| 20260507110529 | 47 | 315 | 3.0 | 10.0 | 0.00 | 0.29 | 0.00 | 81 | 1009.4 |
| 20260507110043 | 48 | 329 | 2.0 | 9.0 | 0.00 | 0.29 | 0.00 | 81 | 1009.5 |
| 20260507105531 | 48 | 340 | 3.0 | 10.0 | 0.00 | 0.29 | 0.00 | 80 | 1009.4 |
| 20260507105030 | 48 | 347 | 4.0 | 10.0 | 0.00 | 0.29 | 0.00 | 79 | 1009.3 |
| 20260507104541 | 48 | 326 | 3.0 | 8.0 | 0.00 | 0.29 | 0.00 | 80 | 1009.3 |
| 20260507104029 | 48 | 17 | 1.0 | 8.0 | 0.00 | 0.29 | 0.00 | 81 | 1009.3 |
| 20260507103529 | 48 | 333 | 2.0 | 8.0 | 0.00 | 0.29 | 0.00 | 81 | 1009.3 |
| 20260507103035 | 48 | 226 | 2.0 | 6.0 | 0.00 | 0.29 | 0.00 | 81 | 1008.9 |
| 20260507102530 | 48 | 335 | 1.0 | 6.0 | 0.00 | 0.29 | 0.00 | 82 | 1008.9 |
| 20260507102029 | 48 | 0 | 0.0 | 5.0 | 0.00 | 0.29 | 0.00 | 82 | 1008.9 |
| 20260507101547 | 48 | 335 | 1.0 | 4.0 | 0.00 | 0.29 | 0.00 | 82 | 1008.8 |
| 20260507101029 | 48 | 0 | 1.0 | 6.0 | 0.00 | 0.29 | 0.00 | 81 | 1008.9 |
| 20260507100529 | 48 | 296 | 1.0 | 6.0 | 0.00 | 0.29 | 0.00 | 81 | 1008.8 |
| 20260507100045 | 48 | 274 | 2.0 | 5.0 | 0.00 | 0.29 | 0.00 | 81 | 1008.7 |
| 20260507095530 | 48 | 266 | 2.0 | 5.0 | 0.00 | 0.29 | 0.00 | 82 | 1008.7 |
| 20260507095029 | 48 | 283 | 2.0 | 5.0 | 0.00 | 0.29 | 0.00 | 82 | 1008.6 |
| 20260507094541 | 48 | 255 | 0.0 | 4.0 | 0.00 | 0.29 | 0.00 | 83 | 1008.7 |
| 20260507094029 | 48 | 282 | 1.0 | 4.0 | 0.00 | 0.29 | 0.00 | 83 | 1008.7 |
| 20260507093529 | 48 | 342 | 1.0 | 5.0 | 0.00 | 0.29 | 0.00 | 84 | 1008.7 |
| 20260507093042 | 48 | 295 | 1.0 | 6.0 | 0.00 | 0.29 | 0.00 | 84 | 1008.7 |
| 20260507092532 | 48 | 334 | 2.0 | 6.0 | 0.00 | 0.29 | 0.00 | 84 | 1008.7 |
| 20260507092029 | 48 | 0 | 0.0 | 4.0 | 0.00 | 0.29 | 0.00 | 86 | 1008.8 |
| 20260507091539 | 48 | 14 | 0.0 | 3.0 | 0.00 | 0.29 | 0.00 | 86 | 1008.7 |
| 20260507091029 | 48 | 0 | 0.0 | 3.0 | 0.00 | 0.29 | 0.00 | 86 | 1008.8 |
| 20260507090528 | 48 | 335 | 0.0 | 4.0 | 0.00 | 0.29 | 0.00 | 86 | 1008.9 |
| 20260507090041 | 48 | 0 | 0.0 | 5.0 | 0.00 | 0.29 | 0.00 | 87 | 1008.9 |
| 20260507085529 | 48 | 291 | 0.0 | 5.0 | 0.00 | 0.29 | 0.00 | 87 | 1009.1 |
| 20260507085030 | 49 | 0 | 0.0 | 5.0 | 0.00 | 0.29 | 0.00 | 87 | 1009.0 |
| 20260507084537 | 49 | 0 | 1.0 | 5.0 | 0.00 | 0.29 | 0.00 | 88 | 1008.8 |
| 20260507084036 | 49 | 288 | 1.0 | 4.0 | 0.00 | 0.29 | 0.00 | 88 | 1009.0 |
| 20260507083530 | 48 | 0 | 1.0 | 4.0 | 0.00 | 0.29 | 0.00 | 89 | 1009.1 |
| 20260507083049 | 48 | 0 | 0.0 | 2.0 | 0.00 | 0.29 | 0.00 | 90 | 1008.8 |
| 20260507082529 | 48 | 0 | 0.0 | 2.0 | 0.00 | 0.29 | 0.00 | 91 | 1009.1 |
| 20260507082029 | 48 | 0 | 0.0 | 2.0 | 0.00 | 0.29 | 0.00 | 92 | 1009.1 |
| 20260507081541 | 48 | 0 | 0.0 | 2.0 | 0.00 | 0.29 | 0.00 | 92 | 1009.2 |
| 20260507081030 | 48 | 270 | 0.0 | 2.0 | 0.00 | 0.29 | 0.00 | 93 | 1009.4 |
| 20260507080529 | 48 | 0 | 0.0 | 1.0 | 0.00 | 0.29 | 0.00 | 93 | 1009.1 |
| 20260507080053 | 49 | 0 | 0.0 | 1.0 | 0.00 | 0.29 | 0.00 | 93 | 1009.1 |
| 20260507075529 | 49 | 0 | 0.0 | 1.0 | 0.00 | 0.29 | 0.00 | 93 | 1009.1 |
| 20260507075029 | 49 | 0 | 0.0 | 0.0 | 0.00 | 0.29 | 0.00 | 93 | 1008.9 |
| 20260507074545 | 49 | 0 | 0.0 | 0.0 | 0.00 | 0.29 | 0.00 | 92 | 1009.0 |
| 20260507074029 | 49 | 0 | 0.0 | 0.0 | 0.00 | 0.29 | 0.00 | 92 | 1008.9 |
| 20260507073530 | 49 | 0 | 0.0 | 0.0 | 0.00 | 0.29 | 0.00 | 92 | 1009.1 |
| 20260507073037 | 49 | 0 | 0.0 | 0.0 | 0.00 | 0.29 | 0.00 | 91 | 1009.2 |
| 20260507072529 | 49 | 0 | 0.0 | 1.0 | 0.00 | 0.29 | 0.00 | 91 | 1008.8 |
| 20260507072028 | 49 | 0 | 0.0 | 1.0 | 0.00 | 0.29 | 0.00 | 90 | 1009.0 |
| 20260507071552 | 49 | 7 | 0.0 | 1.0 | 0.00 | 0.29 | 0.00 | 89 | 1008.6 |
| 20260507071032 | 50 | 0 | 0.0 | 2.0 | 0.00 | 0.29 | 0.00 | 88 | 1008.5 |
| 20260507070530 | 50 | 0 | 0.0 | 3.0 | 0.00 | 0.29 | 0.00 | 88 | 1008.7 |
| 20260507070039 | 50 | 0 | 0.0 | 6.0 | 0.00 | 0.29 | 0.00 | 87 | 1008.4 |
| 20260507065529 | 50 | 338 | 1.0 | 6.0 | 0.00 | 0.29 | 0.00 | 87 | 1008.7 |
| 20260507065029 | 50 | 264 | 1.0 | 6.0 | 0.00 | 0.29 | 0.00 | 87 | 1008.9 |
| 20260507064551 | 50 | 288 | 0.0 | 5.0 | 0.00 | 0.29 | 0.00 | 87 | 1008.8 |
| 20260507064030 | 50 | 307 | 1.0 | 5.0 | 0.00 | 0.29 | 0.00 | 87 | 1008.5 |
| 20260507063529 | 50 | 283 | 2.0 | 5.0 | 0.00 | 0.29 | 0.00 | 87 | 1008.6 |
| 20260507063046 | 50 | 315 | 1.0 | 4.0 | 0.00 | 0.29 | 0.00 | 87 | 1008.5 |
| 20260507062529 | 50 | 269 | 1.0 | 4.0 | 0.00 | 0.29 | 0.00 | 87 | 1008.4 |
| 20260507062029 | 50 | 317 | 1.0 | 4.0 | 0.00 | 0.29 | 0.00 | 87 | 1008.1 |
| 20260507061541 | 50 | 306 | 1.0 | 4.0 | 0.00 | 0.29 | 0.00 | 86 | 1008.0 |
| 20260507061029 | 50 | 323 | 1.0 | 4.0 | 0.00 | 0.29 | 0.00 | 86 | 1008.3 |
| 20260507060529 | 51 | 314 | 1.0 | 3.0 | 0.00 | 0.29 | 0.00 | 86 | 1008.3 |
| 20260507060043 | 51 | 0 | 1.0 | 5.0 | 0.00 | 0.29 | 0.00 | 86 | 1008.3 |
| 20260507055529 | 51 | 0 | 1.0 | 5.0 | 0.00 | 0.29 | 0.00 | 85 | 1008.1 |
| 20260507055031 | 51 | 298 | 1.0 | 5.0 | 0.00 | 0.29 | 0.00 | 85 | 1008.6 |
| 20260507054549 | 51 | 0 | 1.0 | 5.0 | 0.00 | 0.29 | 0.00 | 85 | 1008.8 |
| 20260507054029 | 51 | 314 | 2.0 | 5.0 | 0.00 | 0.29 | 0.00 | 85 | 1008.7 |
| 20260507053529 | 51 | 259 | 0.0 | 5.0 | 0.00 | 0.29 | 0.00 | 85 | 1008.8 |
| 20260507053045 | 51 | 0 | 1.0 | 5.0 | 0.00 | 0.29 | 0.00 | 86 | 1008.6 |
| 20260507052529 | 51 | 267 | 2.0 | 5.0 | 0.00 | 0.29 | 0.00 | 85 | 1008.8 |
| 20260507052029 | 51 | 298 | 2.0 | 4.0 | 0.00 | 0.29 | 0.00 | 87 | 1009.0 |
| 20260507051536 | 51 | 340 | 0.0 | 2.0 | 0.00 | 0.29 | 0.00 | 86 | 1008.8 |
| 20260507051028 | 51 | 0 | 0.0 | 3.0 | 0.00 | 0.29 | 0.00 | 86 | 1009.0 |
| 20260507050529 | 51 | 262 | 1.0 | 3.0 | 0.00 | 0.29 | 0.00 | 87 | 1009.0 |
| 20260507050044 | 51 | 314 | 0.0 | 3.0 | 0.00 | 0.29 | 0.00 | 87 | 1009.0 |
| 20260507045530 | 51 | 345 | 1.0 | 4.0 | 0.00 | 0.29 | 0.00 | 87 | 1009.0 |
| 20260507045030 | 51 | 359 | 1.0 | 4.0 | 0.00 | 0.29 | 0.00 | 86 | 1009.2 |
| 20260507044542 | 51 | 324 | 2.0 | 6.0 | 0.00 | 0.29 | 0.00 | 87 | 1009.2 |
| 20260507044029 | 51 | 343 | 2.0 | 6.0 | 0.00 | 0.29 | 0.00 | 87 | 1009.1 |
| 20260507043529 | 51 | 329 | 2.0 | 5.0 | 0.00 | 0.29 | 0.00 | 88 | 1009.2 |
| 20260507043040 | 51 | 0 | 0.0 | 1.0 | 0.00 | 0.29 | 0.00 | 92 | 1009.0 |
| 20260507042530 | 51 | 0 | 0.0 | 1.0 | 0.00 | 0.29 | 0.00 | 92 | 1009.0 |
| 20260507042029 | 51 | 0 | 0.0 | 0.0 | 0.00 | 0.29 | 0.00 | 91 | 1009.1 |
| 20260507041539 | 51 | 0 | 0.0 | 0.0 | 0.00 | 0.29 | 0.00 | 91 | 1008.8 |
| 20260507041030 | 51 | 0 | 0.0 | 1.0 | 0.00 | 0.29 | 0.00 | 90 | 1008.9 |
| 20260507040530 | 52 | 0 | 0.0 | 1.0 | 0.00 | 0.29 | 0.00 | 89 | 1008.9 |
| 20260507040057 | 52 | 0 | 0.0 | 1.0 | 0.00 | 0.29 | 0.00 | 90 | 1008.6 |
| 20260507035529 | 52 | 315 | 0.0 | 2.0 | 0.00 | 0.29 | 0.29 | 90 | 1008.8 |
| 20260507035030 | 52 | 0 | 0.0 | 2.0 | 0.00 | 0.29 | 0.29 | 90 | 1008.7 |
| 20260507034549 | 52 | 307 | 0.0 | 2.0 | 0.00 | 0.29 | 0.29 | 90 | 1008.6 |
| 20260507034031 | 52 | 0 | 0.0 | 1.0 | 0.00 | 0.29 | 0.29 | 90 | 1008.7 |
| 20260507033532 | 52 | 338 | 0.0 | 2.0 | 0.00 | 0.29 | 0.29 | 90 | 1008.8 |
| 20260507033045 | 52 | 0 | 0.0 | 3.0 | 0.00 | 0.29 | 0.29 | 89 | 1008.9 |
| 20260507032529 | 53 | 0 | 0.0 | 3.0 | 0.00 | 0.29 | 0.29 | 88 | 1009.0 |
| 20260507032032 | 53 | 0 | 1.0 | 4.0 | 0.00 | 0.29 | 0.29 | 88 | 1009.0 |
| 20260507031541 | 53 | 0 | 1.0 | 4.0 | 0.00 | 0.29 | 0.29 | 87 | 1008.9 |
| 20260507031033 | 53 | 306 | 1.0 | 4.0 | 0.00 | 0.29 | 0.29 | 87 | 1008.9 |
| 20260507030529 | 53 | 0 | 0.0 | 3.0 | 0.00 | 0.29 | 0.29 | 88 | 1008.9 |
| 20260507030038 | 53 | 317 | 1.0 | 4.0 | 0.00 | 0.29 | 0.29 | 87 | 1009.0 |
| 20260507025529 | 53 | 0 | 1.0 | 4.0 | 0.00 | 0.29 | 0.29 | 87 | 1008.7 |
| 20260507025030 | 53 | 290 | 1.0 | 4.0 | 0.00 | 0.29 | 0.29 | 88 | 1008.8 |
| 20260507024544 | 53 | 302 | 0.0 | 2.0 | 0.00 | 0.29 | 0.29 | 88 | 1008.4 |
| 20260507024031 | 53 | 325 | 0.0 | 2.0 | 0.00 | 0.29 | 0.29 | 89 | 1008.5 |
| 20260507023530 | 54 | 0 | 0.0 | 5.0 | 0.00 | 0.29 | 0.29 | 90 | 1008.6 |
| 20260507023041 | 54 | 3 | 2.0 | 6.0 | 0.01 | 0.29 | 0.29 | 88 | 1008.5 |
| 20260507022530 | 54 | 288 | 2.0 | 6.0 | 0.01 | 0.29 | 0.29 | 89 | 1008.6 |
| 20260507022030 | 54 | 344 | 0.0 | 3.0 | 0.01 | 0.29 | 0.29 | 92 | 1008.5 |
| 20260507021544 | 54 | 0 | 0.0 | 1.0 | 0.01 | 0.29 | 0.29 | 92 | 1008.3 |
| 20260507021029 | 54 | 0 | 0.0 | 2.0 | 0.01 | 0.29 | 0.29 | 91 | 1008.2 |
| 20260507020530 | 55 | 0 | 0.0 | 7.0 | 0.01 | 0.29 | 0.29 | 90 | 1008.2 |
| 20260507020037 | 55 | 195 | 1.0 | 7.0 | 0.01 | 0.29 | 0.29 | 89 | 1008.0 |
| 20260507015531 | 55 | 320 | 3.0 | 10.0 | 0.01 | 0.29 | 0.29 | 89 | 1007.8 |
| 20260507015030 | 55 | 0 | 3.0 | 10.0 | 0.01 | 0.29 | 0.29 | 90 | 1007.7 |
| 20260507014559 | 55 | 23 | 2.0 | 8.0 | 0.01 | 0.29 | 0.29 | 91 | 1007.9 |
| 20260507014030 | 56 | 0 | 3.0 | 8.0 | 0.01 | 0.29 | 0.29 | 92 | 1007.9 |
| 20260507013525 | 56 | 317 | 0.0 | 2.0 | 0.01 | 0.29 | 0.29 | 94 | 1007.8 |
| 20260507013041 | 56 | 0 | 0.0 | 1.0 | 0.00 | 0.28 | 0.28 | 95 | 1007.9 |
| 20260507012526 | 56 | 0 | 0.0 | 1.0 | 0.01 | 0.28 | 0.28 | 95 | 1007.5 |
| 20260507012026 | 57 | 0 | 0.0 | 1.0 | 0.05 | 0.28 | 0.28 | 95 | 1007.4 |
| 20260507011554 | 57 | 0 | 0.0 | 2.0 | 0.05 | 0.28 | 0.28 | 95 | 1007.1 |
| 20260507011029 | 57 | 0 | 0.0 | 2.0 | 0.05 | 0.28 | 0.28 | 95 | 1007.1 |
| 20260507010529 | 57 | 140 | 1.0 | 2.0 | 0.05 | 0.28 | 0.28 | 94 | 1007.1 |
| 20260507010043 | 58 | 0 | 0.0 | 1.0 | 0.05 | 0.28 | 0.28 | 94 | 1007.1 |
| 20260507005530 | 58 | 252 | 0.0 | 2.0 | 0.05 | 0.28 | 0.28 | 94 | 1007.0 |
| 20260507005030 | 58 | 279 | 0.0 | 4.0 | 0.05 | 0.28 | 0.28 | 94 | 1007.0 |
| 20260507004542 | 58 | 11 | 0.0 | 4.0 | 0.05 | 0.28 | 0.28 | 95 | 1006.5 |
| 20260507004029 | 58 | 300 | 1.0 | 6.0 | 0.05 | 0.28 | 0.28 | 96 | 1006.8 |
| 20260507003530 | 58 | 276 | 0.0 | 6.0 | 0.05 | 0.28 | 0.28 | 96 | 1006.8 |
| 20260507003038 | 59 | 332 | 2.0 | 6.0 | 0.05 | 0.28 | 0.28 | 97 | 1006.7 |
| 20260507002529 | 59 | 346 | 1.0 | 3.0 | 0.03 | 0.26 | 0.26 | 97 | 1006.8 |
| 20260507002026 | 59 | 198 | 1.0 | 5.0 | 0.00 | 0.23 | 0.23 | 97 | 1006.4 |
| 20260507001555 | 59 | 146 | 1.0 | 5.0 | 0.00 | 0.23 | 0.23 | 97 | 1006.1 |
| 20260507001029 | 59 | 126 | 1.0 | 5.0 | 0.00 | 0.23 | 0.23 | 97 | 1006.1 |
| 20260507000529 | 59 | 158 | 1.0 | 5.0 | 0.00 | 0.23 | 0.23 | 97 | 1006.1 |
| 20260507000046 | 59 | 141 | 1.0 | 5.0 | 0.00 | 0.23 | 0.23 | 97 | 1006.0 |
| 20260506235530 | 59 | 150 | 1.0 | 5.0 | 0.00 | 0.23 | 0.23 | 97 | 1006.1 |
| 20260506235031 | 59 | 160 | 1.0 | 4.0 | 0.00 | 0.23 | 0.23 | 97 | 1006.0 |
| 20260506234546 | 59 | 145 | 1.0 | 4.0 | 0.00 | 0.23 | 0.23 | 97 | 1005.9 |
| 20260506234029 | 59 | 147 | 1.0 | 4.0 | 0.00 | 0.23 | 0.23 | 97 | 1005.8 |
| 20260506233530 | 59 | 136 | 0.0 | 4.0 | 0.00 | 0.23 | 0.23 | 97 | 1005.8 |
| 20260506233043 | 59 | 126 | 1.0 | 4.0 | 0.00 | 0.23 | 0.23 | 97 | 1005.8 |
| 20260506232529 | 59 | 142 | 1.0 | 4.0 | 0.00 | 0.23 | 0.23 | 97 | 1005.8 |
| 20260506232029 | 59 | 179 | 2.0 | 4.0 | 0.00 | 0.23 | 0.23 | 97 | 1005.8 |
| 20260506231542 | 59 | 145 | 1.0 | 4.0 | 0.00 | 0.23 | 0.23 | 97 | 1005.8 |
| 20260506231029 | 59 | 155 | 1.0 | 4.0 | 0.00 | 0.23 | 0.23 | 97 | 1005.7 |
| 20260506230530 | 59 | 145 | 2.0 | 4.0 | 0.00 | 0.23 | 0.23 | 96 | 1005.6 |
| 20260506230039 | 59 | 148 | 2.0 | 4.0 | 0.00 | 0.23 | 0.23 | 96 | 1005.6 |
| 20260506225531 | 59 | 181 | 1.0 | 3.0 | 0.01 | 0.23 | 0.23 | 96 | 1005.6 |
| 20260506225029 | 59 | 150 | 1.0 | 3.0 | 0.02 | 0.23 | 0.23 | 96 | 1005.7 |
| 20260506224538 | 59 | 154 | 1.0 | 4.0 | 0.02 | 0.23 | 0.23 | 96 | 1005.7 |
| 20260506224029 | 59 | 0 | 1.0 | 4.0 | 0.04 | 0.23 | 0.23 | 96 | 1005.7 |
| 20260506223529 | 59 | 0 | 1.0 | 3.0 | 0.05 | 0.23 | 0.23 | 96 | 1005.7 |
| 20260506223041 | 59 | 188 | 1.0 | 3.0 | 0.06 | 0.23 | 0.23 | 96 | 1005.8 |
| 20260506222526 | 59 | 0 | 1.0 | 3.0 | 0.07 | 0.23 | 0.23 | 96 | 1005.8 |
| 20260506222030 | 59 | 206 | 0.0 | 2.0 | 0.07 | 0.23 | 0.23 | 97 | 1005.7 |
| 20260506221544 | 59 | 175 | 0.0 | 4.0 | 0.07 | 0.23 | 0.23 | 97 | 1005.8 |
| 20260506221029 | 59 | 171 | 1.0 | 4.0 | 0.07 | 0.23 | 0.23 | 97 | 1005.7 |
| 20260506220529 | 59 | 186 | 0.0 | 3.0 | 0.07 | 0.23 | 0.23 | 96 | 1005.7 |
| 20260506220057 | 59 | 141 | 0.0 | 2.0 | 0.06 | 0.22 | 0.22 | 96 | 1005.7 |
| 20260506215529 | 59 | 152 | 0.0 | 2.0 | 0.06 | 0.22 | 0.22 | 96 | 1005.7 |
| 20260506215029 | 59 | 0 | 0.0 | 3.0 | 0.05 | 0.21 | 0.21 | 96 | 1005.9 |
| 20260506214542 | 59 | 128 | 0.0 | 3.0 | 0.05 | 0.21 | 0.21 | 96 | 1005.9 |
| 20260506214028 | 59 | 157 | 0.0 | 3.0 | 0.03 | 0.19 | 0.19 | 96 | 1005.8 |
| 20260506213532 | 59 | 153 | 1.0 | 3.0 | 0.02 | 0.18 | 0.18 | 96 | 1005.8 |
| 20260506213038 | 59 | 0 | 0.0 | 1.0 | 0.00 | 0.16 | 0.16 | 96 | 1005.7 |
| 20260506212532 | 59 | 0 | 0.0 | 2.0 | 0.01 | 0.16 | 0.16 | 96 | 1005.9 |
| 20260506212029 | 59 | 146 | 0.0 | 2.0 | 0.02 | 0.16 | 0.16 | 96 | 1005.9 |
| 20260506211537 | 59 | 147 | 0.0 | 2.0 | 0.02 | 0.16 | 0.16 | 96 | 1005.8 |
| 20260506211029 | 59 | 0 | 1.0 | 2.0 | 0.03 | 0.16 | 0.16 | 96 | 1005.9 |
| 20260506210531 | 59 | 168 | 0.0 | 2.0 | 0.03 | 0.16 | 0.16 | 96 | 1005.9 |
| 20260506210048 | 59 | 179 | 1.0 | 3.0 | 0.03 | 0.16 | 0.16 | 96 | 1006.0 |
| 20260506205528 | 59 | 133 | 0.0 | 4.0 | 0.03 | 0.16 | 0.16 | 96 | 1005.9 |
| 20260506205028 | 59 | 201 | 0.0 | 5.0 | 0.03 | 0.16 | 0.16 | 96 | 1005.8 |
| 20260506204544 | 59 | 145 | 1.0 | 5.0 | 0.03 | 0.16 | 0.16 | 95 | 1006.0 |
| 20260506204032 | 59 | 148 | 1.0 | 3.0 | 0.04 | 0.16 | 0.16 | 95 | 1005.9 |
| 20260506203529 | 59 | 134 | 1.0 | 5.0 | 0.04 | 0.16 | 0.16 | 96 | 1005.8 |
| 20260506203115 | 59 | 163 | 1.0 | 5.0 | 0.04 | 0.16 | 0.16 | 95 | 1005.9 |
| 20260506202530 | 59 | 141 | 1.0 | 5.0 | 0.03 | 0.15 | 0.15 | 95 | 1006.0 |
| 20260506202029 | 59 | 156 | 0.0 | 2.0 | 0.03 | 0.14 | 0.14 | 95 | 1006.1 |
| 20260506201546 | 59 | 144 | 0.0 | 2.0 | 0.03 | 0.14 | 0.14 | 95 | 1006.2 |
| 20260506201029 | 59 | 143 | 0.0 | 5.0 | 0.02 | 0.13 | 0.13 | 95 | 1006.3 |
| 20260506200529 | 59 | 147 | 1.0 | 5.0 | 0.02 | 0.13 | 0.13 | 95 | 1006.3 |
| 20260506200046 | 59 | 252 | 1.0 | 5.0 | 0.03 | 0.13 | 0.13 | 95 | 1006.2 |